Temp
8 8 9 9 9 9 9 8 8 8 8 8 8 9 9 9 9 9 10 10 10 10 10 10 10 10 9 9 9 8 7 7 7 7 7 7 7 7 6 6 6 6 6 6 6
8 8 9 9 9 9 9 9 8 8 8 8 8 9 9 9 9 10 10 10 10 10 10 10 10 10 10 9 9 9 8 7 7 7 7 7 7 7 7 6 6 7 6 6 6
8 9 9 9 9 9 9 9 8 8 9 9 9 9 9 9 9 10 10 10 10 10 10 10 10 10 10 9 9 9 8 8 8 8 7 7 7 7 7 7 7 7 7 6 6
8 9 9 9 9 9 9 9 9 9 9 9 9 9 9 10 10 10 10 10 10 10 10 10 10 10 10 9 9 8 8 8 8 8 7 7 7 7 8 6 6 7 7 7 6
8 9 9 9 9 9 9 9 9 9 9 9 9 9 10 10 10 10 10 10 10 10 10 10 10 10 10 9 8 8 8 8 8 8 7 7 7 8 8 7 7 6 6 6 6
8 8 9 9 9 9 9 9 9 9 9 9 9 9 10 10 10 10 10 10 10 10 10 9 9 9 9 9 8 8 8 8 8 8 8 8 8 8 7 7 7 6 6 6 6
8 8 8 8 9 9 9 9 9 9 9 9 9 9 10 10 10 10 10 10 10 10 9 9 9 9 9 8 8 8 8 8 8 8 8 8 8 8 8 7 7 6 6 6 6
8 8 8 8 9 9 9 9 9 9 9 9 9 9 10 10 10 10 10 10 9 9 9 9 9 8 8 8 8 8 8 7 7 7 7 7 9 9 9 8 8 7 7 6 6
8 8 8 9 9 9 9 9 9 9 9 9 10 10 10 10 9 9 9 9 9 9 9 9 8 8 8 8 8 7 7 6 7 7 7 7 9 8 8 9 8 8 7 7 6
8 8 8 9 9 9 9 9 9 9 9 9 9 9 9 9 9 9 9 9 9 9 9 8 8 8 8 7 7 7 7 7 6 6 7 7 9 9 7 8 8 7 7 7 7
8 8 8 8 9 9 9 9 9 10 9 9 9 9 9 9 9 9 9 9 9 9 9 9 8 8 7 7 7 6 6 6 6 6 6 7 8 9 9 9 8 8 7 7 7
7 8 8 8 8 8 9 9 9 9 9 9 9 9 8 8 9 9 9 9 9 9 8 8 8 8 7 7 7 7 6 7 6 6 6 7 8 9 8 8 7 7 6 6 6
7 7 7 8 8 8 8 8 8 9 9 9 9 8 8 8 8 8 8 8 8 8 8 8 8 7 7 7 7 7 6 6 5 5 6 7 7 8 8 7 7 7 6 6 6
7 7 7 7 7 8 8 8 8 8 8 8 8 8 8 8 8 8 8 8 8 8 7 8 8 7 7 7 6 6 6 5 5 5 4 4 3 7 7 7 6 6 6 5 5
6 6 7 7 7 7 7 7 8 8 2 8 8 8 7 8 8 8 8 8 7 7 7 7 7 7 7 7 6 6 6 5 5 3 2 5 2 7 7 7 7 6 6 5 5
6 6 6 6 6 7 7 7 7 7 6 7 7 7 7 7 7 7 7 7 7 7 7 7 7 6 6 6 6 5 5 5 4 2 -1 5 4 6 6 7 6 5 5 5 4
6 6 6 6 6 6 6 6 7 7 7 7 7 7 7 7 7 7 7 7 7 6 7 6 6 6 6 6 6 5 5 4 1 -1 1 4 3 5 5 5 5 5 4 4 3
6 6 6 6 6 6 6 6 6 7 7 7 7 6 7 7 7 6 6 6 7 6 5 5 5 6 6 6 5 4 4 4 2 1 1 3 3 6 6 6 4 4 3 3 2
5 6 6 6 6 6 6 5 6 6 6 6 6 6 6 6 5 5 5 5 6 6 5 5 5 5 5 5 4 3 3 3 2 2 0 3 4 4 4 4 3 2 2 2 1
5 5 5 5 6 5 5 5 5 5 5 5 5 5 5 5 4 4 4 5 5 5 5 4 4 4 4 4 3 3 3 2 1 -1 -1 1 3 4 3 3 2 1 1 0 -1
4 5 5 5 5 5 5 5 5 5 4 4 4 4 4 4 4 3 3 4 4 4 4 4 3 3 3 3 3 3 2 2 1 -1 -1 -2 1 2 1 1 -0 -1 -1 -1 -2
3 3 4 4 4 4 4 4 3 3 3 3 3 3 3 3 3 2 3 3 3 3 3 3 2 2 2 2 2 2 2 1 0 -2 -2 -2 -0 2 1 -0 -1 -2 -1 -2 -2
3 3 3 3 3 3 2 2 2 2 3 3 2 2 2 2 1 2 2 2 2 2 2 2 1 1 1 1 2 0 0 -1 -2 -2 -2 -1 -1 0 -1 -2 -2 -1 -2 -2 -2
1 1 1 2 2 1 2 2 2 1 2 2 1 1 0 1 1 0 0 0 0 0 0 0 0 -0 -0 1 1 -0 -1 -2 -2 -2 -2 -2 -0 -1 -2 -2 -2 -2 -2 -2 -3
-1 -1 -1 0 0 0 0 1 1 0 0 0 -0 -0 -1 -1 -1 -1 -1 -1 -1 -1 -1 -2 -1 -1 -1 -1 -1 -1 -1 -1 -2 -2 -2 -2 -2 -2 -2 -2 -3 -3 -3 -4 -4
-1 -2 -1 -1 -1 -0 -0 -1 -0 0 -1 -1 -1 -1 -1 -1 -1 -1 -1 -1 -1 -1 -2 -2 -2 -2 -2 -2 -2 -2 -2 -2 -2 -1 -2 -2 -3 -3 -3 -3 -4 -4 -5 -4 -5
-2 -2 -2 -2 -2 -2 -1 -1 -1 -2 -2 -2 -2 -2 -2 -2 -2 -2 -2 -2 -2 -2 -2 -3 -3 -2 -3 -2 -2 -3 -2 -1 -1 -2 -3 -3 -3 -3 -4 -5 -6 -6 -6 -6 -6
Height
3138 3138 3139 3140 3141 3143 3144 3145 3145 3144 3144 3143 3142 3142 3142 3141 3141 3140 3139 3139 3138 3137 3137 3137 3137 3137 3136 3135 3135 3135 3136 3135 3135 3134 3134 3133 3132 3131 3130 3128 3127 3126 3125 3125 3125
3139 3140 3140 3141 3142 3144 3145 3145 3145 3144 3144 3143 3143 3142 3142 3142 3141 3141 3140 3138 3139 3139 3138 3138 3138 3137 3137 3136 3136 3135 3135 3134 3134 3134 3133 3132 3131 3129 3128 3126 3124 3124 3123 3122 3122
3141 3141 3142 3143 3144 3145 3145 3145 3145 3145 3145 3144 3143 3142 3142 3142 3142 3141 3140 3140 3139 3139 3139 3139 3138 3138 3136 3136 3136 3135 3134 3134 3134 3133 3132 3130 3129 3127 3125 3124 3122 3121 3121 3121 3120
3143 3143 3144 3145 3146 3146 3146 3146 3146 3146 3145 3144 3144 3143 3142 3142 3144 3142 3141 3141 3141 3140 3140 3139 3138 3138 3136 3136 3135 3135 3134 3133 3133 3132 3130 3129 3127 3124 3123 3123 3119 3118 3118 3118 3118
3146 3146 3146 3146 3147 3147 3147 3147 3147 3146 3145 3145 3144 3143 3143 3144 3144 3142 3141 3141 3142 3141 3140 3139 3138 3137 3136 3135 3135 3134 3133 3133 3132 3131 3129 3127 3125 3122 3121 3119 3118 3116 3116 3115 3115
3148 3148 3148 3148 3148 3148 3148 3148 3147 3147 3146 3145 3144 3144 3144 3145 3143 3142 3142 3142 3142 3141 3140 3139 3138 3137 3136 3135 3134 3133 3132 3131 3130 3129 3127 3125 3123 3120 3119 3117 3116 3115 3112 3113 3112
3150 3149 3149 3149 3149 3149 3148 3148 3148 3147 3146 3145 3144 3144 3144 3144 3142 3142 3142 3142 3141 3141 3140 3139 3138 3137 3136 3135 3133 3132 3131 3129 3128 3126 3124 3122 3121 3118 3116 3114 3113 3112 3111 3109 3109
3152 3151 3150 3150 3150 3149 3149 3148 3147 3146 3146 3145 3144 3144 3143 3143 3142 3142 3141 3141 3140 3140 3139 3138 3137 3136 3135 3134 3132 3131 3130 3127 3125 3123 3122 3120 3117 3115 3113 3111 3109 3108 3107 3106 3105
3154 3153 3152 3151 3150 3149 3148 3147 3146 3145 3144 3144 3144 3143 3143 3142 3141 3141 3141 3140 3139 3139 3138 3137 3136 3135 3134 3133 3131 3129 3128 3127 3125 3122 3120 3119 3112 3112 3110 3107 3106 3105 3103 3102 3102
3154 3153 3152 3151 3150 3149 3148 3147 3145 3145 3144 3143 3142 3144 3142 3142 3140 3140 3139 3139 3138 3137 3137 3136 3134 3133 3133 3131 3130 3128 3127 3125 3123 3122 3117 3115 3110 3109 3105 3103 3102 3100 3099 3098 3098
3154 3153 3152 3151 3149 3148 3147 3146 3147 3146 3143 3142 3141 3140 3139 3140 3139 3139 3138 3137 3136 3136 3135 3133 3133 3131 3131 3129 3128 3126 3124 3122 3120 3117 3114 3112 3107 3104 3100 3098 3098 3096 3096 3095 3095
3154 3152 3151 3150 3148 3147 3145 3144 3143 3143 3141 3139 3137 3137 3137 3137 3137 3136 3137 3136 3135 3133 3132 3131 3129 3129 3128 3127 3126 3123 3121 3119 3116 3115 3110 3106 3102 3099 3096 3095 3094 3093 3092 3092 3092
3154 3152 3151 3149 3148 3146 3144 3143 3141 3140 3138 3136 3134 3134 3134 3136 3135 3135 3135 3134 3132 3131 3130 3128 3128 3126 3126 3124 3123 3120 3117 3115 3114 3110 3109 3100 3095 3094 3093 3092 3091 3090 3089 3088 3088
3153 3152 3150 3148 3149 3145 3144 3142 3140 3138 3135 3135 3134 3134 3135 3134 3134 3133 3132 3133 3131 3129 3128 3126 3125 3124 3123 3121 3119 3117 3115 3113 3110 3107 3103 3101 3095 3091 3089 3089 3087 3086 3086 3085 3083
3152 3150 3149 3148 3146 3145 3144 3140 3139 3138 3137 3136 3134 3134 3133 3135 3134 3132 3131 3129 3128 3126 3127 3125 3123 3121 3119 3118 3116 3115 3112 3110 3106 3102 3099 3096 3095 3085 3085 3085 3084 3083 3082 3080 3080
3150 3149 3147 3146 3144 3143 3141 3139 3138 3139 3134 3133 3132 3132 3133 3132 3131 3128 3127 3126 3125 3122 3121 3120 3119 3117 3116 3114 3112 3111 3109 3106 3100 3099 3097 3089 3090 3082 3082 3080 3078 3077 3078 3078 3076
3147 3146 3145 3144 3143 3141 3139 3139 3138 3134 3134 3133 3131 3130 3129 3128 3126 3124 3123 3123 3123 3120 3117 3115 3114 3112 3112 3111 3109 3108 3106 3104 3100 3098 3092 3087 3086 3076 3076 3075 3074 3071 3072 3072 3071
3143 3143 3142 3141 3139 3138 3138 3138 3136 3132 3131 3130 3129 3128 3126 3124 3122 3121 3120 3119 3118 3116 3113 3111 3108 3109 3108 3108 3107 3104 3105 3105 3101 3095 3087 3087 3078 3071 3070 3068 3069 3068 3067 3067 3067
3139 3139 3138 3136 3135 3134 3135 3134 3132 3130 3129 3127 3126 3123 3122 3121 3121 3118 3115 3114 3113 3113 3113 3109 3104 3104 3104 3103 3103 3099 3099 3099 3095 3091 3086 3075 3070 3068 3066 3065 3065 3065 3064 3064 3062
3133 3134 3133 3132 3131 3130 3130 3128 3128 3127 3126 3124 3123 3122 3120 3118 3117 3115 3112 3111 3109 3109 3109 3106 3101 3098 3098 3098 3097 3096 3095 3093 3093 3090 3083 3069 3067 3063 3064 3063 3061 3058 3059 3059 3059
3127 3127 3127 3126 3125 3124 3122 3121 3121 3121 3121 3120 3118 3116 3116 3114 3112 3111 3108 3108 3105 3104 3104 3102 3100 3094 3092 3091 3091 3090 3087 3087 3086 3084 3078 3073 3065 3061 3060 3056 3056 3054 3053 3053 3052
3120 3121 3120 3120 3121 3118 3116 3115 3115 3114 3114 3113 3111 3110 3108 3108 3105 3104 3102 3103 3100 3100 3098 3097 3094 3087 3085 3083 3082 3080 3078 3079 3077 3075 3072 3069 3059 3058 3054 3050 3049 3047 3047 3046 3044
3114 3113 3114 3113 3112 3111 3110 3109 3108 3107 3107 3105 3104 3103 3103 3103 3102 3097 3096 3095 3095 3093 3091 3089 3085 3082 3078 3077 3074 3071 3072 3072 3071 3068 3060 3062 3053 3051 3048 3045 3042 3040 3039 3037 3036
3107 3105 3106 3106 3105 3102 3102 3102 3101 3100 3099 3099 3097 3097 3096 3094 3095 3089 3088 3088 3086 3085 3084 3083 3078 3078 3072 3069 3071 3066 3064 3064 3063 3058 3053 3044 3043 3046 3040 3038 3034 3033 3031 3029 3028
3101 3098 3097 3099 3098 3097 3096 3095 3094 3095 3093 3092 3089 3089 3089 3086 3085 3083 3082 3080 3078 3076 3074 3074 3067 3067 3062 3062 3061 3055 3054 3055 3051 3046 3043 3031 3038 3037 3031 3030 3026 3024 3023 3022 3021
3095 3093 3090 3088 3090 3090 3088 3085 3086 3086 3085 3082 3081 3082 3081 3078 3079 3074 3074 3073 3071 3068 3066 3063 3056 3057 3047 3051 3049 3040 3043 3041 3038 3034 3031 3027 3028 3022 3019 3018 3018 3016 3014 3012 3012
3085 3084 3081 3077 3078 3079 3076 3076 3076 3077 3076 3074 3074 3073 3072 3071 3068 3066 3064 3061 3060 3058 3057 3054 3052 3050 3039 3043 3040 3029 3026 3025 3026 3023 3022 3019 3017 3013 3010 3009 3009 3007 3005 3003 3002
Wind_Speed
7 7 7 8 8 7 6 6 6 6 6 7 7 6 6 8 9 7 11 12 11 10 10 9 8 7 6 6 5 5 4 2 5 6 8 8 11 9 8 10 11 11 12 14 13
8 8 8 9 9 8 7 6 6 6 6 6 6 6 7 9 11 9 11 12 11 9 9 8 5 8 6 6 5 3 1 1 6 7 10 10 10 13 11 12 12 11 9 12 13
9 9 9 10 9 8 7 7 7 7 7 6 6 8 6 6 10 9 10 10 10 10 8 7 7 6 7 6 5 3 4 4 5 6 9 11 12 14 14 11 14 11 10 9 12
12 11 10 10 9 8 7 7 7 7 7 7 7 7 9 8 4 8 9 9 9 9 9 8 7 5 6 5 6 4 5 6 6 7 9 11 15 16 14 11 15 13 11 10 11
11 11 10 9 8 7 5 4 4 4 5 6 7 7 6 8 7 8 8 8 7 7 6 7 7 7 8 7 8 6 7 5 8 6 12 13 15 17 10 11 12 12 14 12 12
10 9 8 7 6 5 4 2 1 2 3 4 4 5 6 4 6 7 6 6 5 5 6 6 7 7 8 9 8 9 9 7 5 9 12 14 11 13 12 13 12 11 15 13 13
9 7 5 4 4 3 2 2 3 3 3 4 4 2 3 5 5 5 4 4 5 5 5 6 6 6 8 6 8 5 6 9 10 15 17 18 12 18 16 13 15 14 14 16 14
9 8 6 5 3 2 2 3 3 4 5 5 4 3 2 4 4 4 3 2 4 5 5 6 5 5 6 7 4 6 5 15 17 17 17 21 18 18 19 16 13 12 13 14 15
7 7 6 6 5 5 4 4 4 6 6 6 6 4 1 4 3 4 4 3 4 5 6 6 6 6 5 7 5 6 10 11 15 17 18 21 25 26 19 18 7 12 15 14 13
8 7 7 6 6 6 7 7 7 8 8 6 6 5 4 5 5 5 5 5 5 6 7 8 8 8 6 9 8 9 14 14 13 14 21 25 26 23 21 16 8 12 11 10 9
9 8 8 8 7 8 8 9 10 10 7 10 10 9 8 7 6 6 6 6 6 8 9 9 9 8 8 11 13 13 14 15 15 19 22 26 28 22 23 8 9 7 5 8 9
10 10 9 9 8 8 9 9 10 10 11 13 12 11 9 8 7 8 7 7 8 10 10 12 12 9 12 13 15 15 16 17 15 17 29 29 28 22 11 8 9 5 6 8 8
9 10 10 10 9 10 9 9 10 11 14 12 8 7 8 7 7 8 6 9 10 11 10 13 15 12 11 15 18 17 19 16 17 27 25 27 25 10 11 12 8 6 7 8 9
8 9 9 10 9 9 10 10 11 12 10 5 3 2 2 4 5 6 11 11 11 11 13 9 9 12 16 19 17 19 14 15 21 27 16 16 7 15 12 10 10 12 10 11 14
9 9 9 9 9 10 10 10 11 11 4 3 2 1 2 7 9 9 13 14 14 15 14 14 15 18 19 18 16 17 14 18 25 21 18 12 8 3 9 13 16 14 12 11 15
11 11 11 11 10 10 11 11 12 4 4 2 3 2 8 12 16 16 16 15 14 14 13 16 17 16 19 18 15 16 16 21 14 11 3 8 10 7 13 20 16 15 15 8 12
15 14 14 13 12 11 11 11 6 4 4 3 3 12 16 20 19 15 10 6 13 14 15 19 19 17 12 13 13 11 13 6 3 2 6 4 9 24 31 25 23 20 13 8 12
17 16 16 16 15 14 13 12 5 5 8 14 13 18 22 13 9 6 14 18 19 16 17 12 9 11 11 10 19 16 13 5 5 3 6 15 11 10 12 11 14 15 9 11 13
19 18 16 17 17 17 15 11 7 10 11 12 22 19 9 6 10 15 17 19 9 8 9 9 10 10 13 25 17 10 13 11 11 18 8 10 11 15 11 13 11 8 9 12 17
22 19 19 18 18 18 17 18 16 18 20 22 20 11 14 14 14 16 11 11 13 13 13 17 24 21 19 16 17 20 20 10 8 4 5 6 9 12 12 8 7 11 11 16 18
25 23 20 20 20 20 21 22 21 20 21 22 21 18 20 24 23 17 13 18 20 21 20 19 20 24 23 25 22 21 24 21 15 9 3 3 4 6 5 11 12 12 15 19 21
27 24 19 19 20 22 24 20 19 20 21 22 25 26 25 21 21 17 19 21 21 21 25 25 27 29 32 29 28 27 25 23 16 7 12 8 12 21 17 21 20 17 21 22 25
29 29 25 23 21 19 17 21 22 24 23 27 24 20 17 19 19 15 18 23 23 26 20 18 11 14 15 16 19 22 18 22 25 27 24 12 7 15 23 24 26 29 34 28 26
29 26 24 25 24 24 24 25 26 27 27 22 22 20 24 29 29 28 26 20 26 25 25 26 33 31 30 33 31 31 33 30 30 23 25 31 39 36 34 35 40 40 35 33 26
25 26 26 18 16 20 21 22 22 23 26 28 33 31 24 26 29 31 30 30 30 26 26 24 37 38 41 40 42 47 46 41 33 41 35 50 39 34 34 31 32 35 31 23 22
29 28 26 30 27 28 27 34 30 28 27 28 30 29 30 33 33 36 33 31 35 37 36 36 36 38 47 41 38 44 40 41 41 41 45 48 44 39 40 39 33 28 22 20 21
27 27 28 32 31 29 32 30 30 24 25 27 29 31 31 29 29 32 35 38 38 38 36 37 36 31 36 25 23 27 31 27 21 25 29 30 28 32 31 27 23 21 18 20 21
Wind_Direction
118 120 128 132 130 123 113 104 90 72 57 50 57 80 89 78 68 63 58 58 56 55 63 61 70 78 70 73 72 89 104 148 279 297 304 315 307 310 300 304 303 300 302 308 307
103 110 121 127 127 122 113 98 80 65 57 60 71 89 103 81 68 62 62 57 52 53 60 71 72 72 72 68 58 48 19 282 293 305 310 311 306 308 313 302 306 303 299 308 310
94 102 112 119 120 116 104 88 75 67 69 73 80 75 90 92 66 62 64 59 51 44 47 51 51 55 59 59 45 21 4 338 319 312 306 314 317 304 309 312 298 305 314 307 303
88 96 104 110 110 105 96 88 79 72 70 67 74 77 72 72 74 59 60 53 47 40 39 34 28 25 41 41 25 5 358 351 331 323 324 324 324 313 301 307 297 304 302 306 301
82 88 95 100 100 100 101 94 79 69 61 58 59 63 68 62 65 61 54 47 41 36 33 33 23 18 14 6 358 356 351 333 339 330 340 327 328 316 317 292 308 298 291 298 298
80 87 92 97 100 101 98 91 61 29 26 32 38 47 53 30 48 55 51 45 32 22 24 20 18 14 4 350 347 345 349 339 342 340 345 341 334 329 315 297 311 312 296 292 295
67 75 84 89 88 84 71 45 25 15 11 18 6 27 53 55 55 51 48 37 21 9 5 5 6 6 357 351 335 348 346 344 341 344 344 348 356 343 336 317 306 304 300 294 285
49 54 57 62 60 31 342 320 319 335 348 355 352 358 34 30 29 28 22 15 3 1 358 354 348 344 345 355 339 340 329 338 333 334 336 341 342 343 332 330 320 315 306 297 286
37 35 31 31 31 23 5 346 336 329 314 320 330 339 282 343 354 355 347 337 336 346 343 337 334 329 328 342 344 307 319 317 318 321 324 334 330 332 327 322 330 326 310 310 294
21 16 11 5 360 354 348 339 330 324 314 310 311 324 318 323 319 322 325 321 319 323 324 325 329 324 314 347 322 307 308 313 315 314 320 323 322 329 321 302 338 331 316 317 295
13 11 3 356 347 339 334 330 322 319 307 303 297 296 295 303 315 304 304 311 312 316 317 316 324 328 326 316 315 306 305 305 313 316 314 318 319 328 309 273 346 333 329 327 317
7 5 4 357 349 342 336 332 326 313 307 300 293 289 282 287 305 306 296 304 308 311 315 318 317 318 307 301 309 307 305 311 314 315 316 318 316 319 295 290 332 295 335 324 323
2 0 360 360 353 347 343 339 333 327 317 307 304 300 279 280 292 299 286 308 306 309 310 307 302 303 301 301 307 308 308 307 302 314 316 312 317 309 288 283 308 253 316 335 327
342 347 347 351 345 343 340 337 334 332 314 310 334 335 358 327 314 324 308 307 302 304 307 304 307 306 305 306 304 307 311 304 310 315 313 306 284 305 282 262 282 281 293 339 341
324 327 329 330 334 335 334 335 334 331 354 310 336 337 327 328 321 319 309 301 299 300 296 294 302 301 300 304 303 302 307 306 308 298 300 297 241 273 244 257 279 279 286 322 338
304 310 317 323 325 324 325 325 323 315 262 285 302 317 317 315 312 308 302 299 302 298 296 296 294 294 302 298 299 303 305 310 292 279 270 284 225 254 266 285 273 284 280 285 313
301 303 306 308 309 313 319 325 316 230 301 275 297 312 313 316 311 307 304 310 311 304 295 298 292 291 286 285 299 298 300 306 318 261 235 233 231 273 288 264 266 275 276 280 309
298 298 301 300 302 303 306 313 268 266 271 295 305 307 312 313 313 301 302 304 304 294 286 293 286 288 274 285 302 290 289 243 275 256 268 279 251 282 282 254 241 265 270 289 300
300 299 298 296 294 293 293 289 265 268 275 284 300 302 292 278 294 298 305 307 290 287 268 287 270 282 261 291 281 274 266 268 257 270 282 251 261 258 247 235 237 240 283 287 302
297 296 296 292 287 284 280 275 269 274 277 281 290 275 270 281 297 302 300 290 284 275 273 281 287 289 283 267 268 264 269 249 229 272 260 268 261 269 235 233 252 255 260 290 311
297 297 297 292 287 279 273 277 279 278 275 279 283 275 277 286 288 275 268 279 274 274 277 280 278 281 277 277 283 276 259 250 247 218 251 303 267 149 235 214 235 250 280 300 296
295 297 293 288 283 280 280 282 276 272 271 274 278 283 285 281 275 267 269 283 276 272 277 277 275 273 280 281 283 272 258 252 226 223 223 246 258 257 243 238 239 257 285 293 285
291 290 287 284 279 276 265 258 261 266 271 280 282 280 276 275 283 282 283 281 276 277 274 272 256 280 286 274 272 256 251 244 249 250 242 246 249 251 242 249 254 278 297 291 293
297 294 287 284 277 270 266 261 259 266 275 276 279 273 278 280 282 280 280 278 285 277 272 267 266 258 255 267 280 275 275 273 269 252 266 242 269 265 265 266 273 284 284 298 301
298 292 285 269 265 265 268 262 265 267 267 271 276 277 281 282 286 278 286 279 268 262 262 263 265 269 271 275 275 274 274 273 265 269 252 274 269 278 272 267 272 281 287 283 284
290 287 284 275 272 269 267 269 274 282 271 268 270 277 273 272 275 276 274 268 269 275 278 281 278 284 287 289 286 279 277 274 270 270 267 273 272 269 267 269 270 272 258 265 272
268 272 265 271 272 276 276 273 281 280 276 267 274 273 272 278 270 270 271 272 271 274 276 274 273 272 275 282 287 276 280 281 273 263 260 260 253 252 251 252 255 259 270 283 303